User: anonymous   Login
Location: Home
(42.5358°N, 72.7383°W)
Time: 03:49:24
(UTC-05:00)
Language:

FENGYUN 1C DEB - Orbit

View from above orbital plane
View from above orbital plane
View from above satellite
View from above satellite

Ground track
Ground track

The orbit data is extracted from the following two-line orbital elements,

1 30873U 99025AXK 22332.52505622  .00000215  00000-0  11994-3 0  9990
2 30873  98.6318 348.9518 0110070 247.3436 111.6070 14.17493254814553
Epoch (UTC): 28 November 2022 12:36:04
Eccentricity: 0.0110070
inclination: 98.6318°
perigee height: 754 km
apogee height: 913 km
right ascension of ascending node: 348.9518°
argument of perigee: 247.3436°
revolutions per day: 14.17493254
mean anomaly at epoch: 111.6070°
orbit number at epoch: 81455

The dashed part of the orbit path shows where the satellite is in the earth's shadow,  

DLR